Race Results for
Folsom Cyclebration Time Trial
Folsom, CA
(Event Information)
View By:
Individual Time Trial on 09/11/2009

Note: Ranking points are NOT upgrade points. An explanation of ranking points can be found here.


Men - PC

 Place Points NameCity, StateTime USAC #BibTeam
1MATT STRUGAR-FRITSCH   36:52  979 
2CHRIS HOUDE   38:06  972 
3KENT GILLIS   39:52  971 
DNSRICK MASON     978 

Men - Pro/Cat 1/2

 Place Points NameCity, StateTime USAC #BibTeam
1344.23Philip Mooney   San Rafael , CA21:18 206962  14 METROMINT CYCLING
2355.40Vincent Owens   Fresno, CA21:40 242560  17 HDR P/B LOMBARDI SPORTS
3366.58Frank Marrs   Atlanta, GA21:43 272691  13 DAVIS BIKE CLUB
4377.75Josh Rennie   Reno, NV21:51 251736  18 TEAM CLIF BAR CYCLING
5388.92Filip Vanacht   Los Altos, CA21:56 245198  25 SUGARCRM
6400.09Andrew Talansky   Napa, CA22:03 242630  23 AMORE-VITA/VELO VIE P/B LIFETIME FITNESS
7411.26Charles Alexander   Sacramento, CA22:16 206466  DAVIS BIKE CLUB
8422.43Mark Shimahara   Ventura, CA22:26 32481  21 TEAM CLIF BAR
9433.60Kevin Klein   Menlo Park, CA22:36 47388  10 KLEIN REAL ESTATE
10444.77Evan Huffman   El Dorado Hills, CA22:46 256955  HDR P/B LOMBARDI SPORTS
11455.95Dylan Clark   Auburn, CA22:50 243069  SAFEWAY/ BICYCLES PLUS
12467.12Brian Heneghan   San Jose, CA23:10 63508  SUGARCRM
13478.29Collin Samaan   Fair Oaks, CA23:17 196233  19 TEAM SPINE
14489.46Bryan Larsen   Dana Point, CA23:21 195204  11 RIO STRADA
15500.63Joshua Carling   Rancho Cordova, CA23:38 234584  PACIFIC STATE BANK CYCLING TEAM
16511.80Joe Feng   Santa Rosa, CA23:40 213018  TEAM NORCAL BIKE SPORT
17522.97Gregory White   Lafayette, CA23:57 246669  27 DAVIS BIKE CLUB
18534.14Raffi Jilizian   Danville, CA23:59 187667  TEAM NORCAL BIKE SPORT
19545.32Adam Ross   Folsom, CA24:39 167796  30 WELLS FARGO RACING TEAM
20556.49Judd Van Sickle   Sacramento, CA24:40 127052  24 ROCKNASIUM
21567.66Michael Jasinski   Rocklin, CA25:04 269476  CHICO CORSA
22578.83Nicholas Oliver   El Dorado Hills, CA25:41 271541  16 RIO STRADA RACING
23590.00Jonathan Lee   Santa Rosa, CA26:33 217858  12 TEAM NORCAL BIKE SPORT
DNSKevin Swanson   Santa Rosa, CA 56660  22 SWANCOACHING.COM
DNSRussell White   Lafayette, CA 236024  26 DAVIS BIKE CLUB

Men - Cat 1/2/3 - Master - 35-99

 Place Points NameCity, StateTime USAC #BibTeam
1446.97Kevin Metcalfe   Pleasant Hill, CA22:13 47519  526 TEAM SPECIALIZED RACING MASTERS
2456.51Alex Holtz   Sacramento, CA22:13 61440  510 EMC2-FELT
3466.04Kyle Glerum   Burlingame, CA22:31 195470  506 SAFEWAY / BICYCLES PLUS
4475.58Brad Rampelberg (1 - Cat3)   San Jose, CA22:37 177382  516 WEBCOR/ALTO VELO
5485.11Bob Delp   Folsom, CA23:10 9138  505 TEAM BICYCLES PLUS/SIERRA NEVADA
6494.65Michael Jacques   Portola Valley, CA23:17 72022  511 GARRISON ISTITUTIONAL
7504.18Judd Van Sickle   Sacramento, CA23:22 127052  522 ROCKNASIUM
8513.72Richard Bradley   Sacramento, CA23:25 223944  502 EMC2-FELT
9523.25Matthew Ream   Verdi, NV23:26 211441  517 VOS-CYCLES GLADIATOR
10532.79wilson gorrell   Folsom, CA23:46 254622  507 SAFEWAY/BICYCLES PLUS
11542.32Daryl Spano   Fremont, CA23:56 146243  519 SJBC/SUGARCRM
12551.86Jason Boynton   Yuba City, CA24:21 4526  501 ROCKNASIUM
13561.39Murat Ozgur   Los Altos, CA24:24 41335  527 SPORTGENIC/SQUADRA OVEST
14570.93Justin Hall   El Dorado Hills, CA24:38 81780  508 ROCKNASIUM
15580.46Ramon Alarcon   Los Gatos, CA25:08 240484  500 SJBC/SUGARCRM
16590.00Christopher Baker   Sacramento, CA26:42 47424  525 EMC2/FELT

Men - Cat 3

 Place Points NameCity, StateTime USAC #BibTeam
1456.69Steven Vickery   Chico, CA21:34 236946  131 METROMINT CYCLING
2463.04Frank Spiteri   San Mateo, CA22:54 236118  126 PENINSULA VELO/POMODORO
3469.39Torey Philipp   El Dorado Hills, CA22:59 263055  119 DAVIS BIKE CLUB
4475.74James Bender   Seattle, WA23:07 122052  100 SR RACING
5482.08Mark Slavonia   San Francisco, CA23:09 49355  125 PENINSULA VELO/POMODORO
6488.43Kenneth Mejica   San Francisco, CA23:23 254913  112 TALEO RACING
7494.78Cody Tapley   Citrus Heights, CA23:24 234610  128 DAVIS BIKE CLUB
8501.13Steve Offerman   Sacramento, CA23:43 81992  116 RIO STRADA RACING
9507.48Mark Fairman   San Francisco, CA23:47 270120  106 METROMINT CYCLING
10513.82Ken Todd   Folsom, CA24:13 174881  129 TEAM BICYCLES PLUS/SIERRA NEVADA
11520.17Jonathan Moskowitz   Benicia, CA24:46 213197  114 TALEO RACING
12526.52Jason Grefrath   Sacramento, CA25:05 281883  108 DAVIS BIKE CLUB
13532.87Mark Volkmann   San Anselmo, CA25:06 53055  143 
14539.22Bryan Pro   Davis, CA25:09 195430  121 DAVIS BIKE CLUB
15545.56Nick Kinney   Windsor, CA25:10 255460  109 ALL SPORT-TEAM SWIFT
16551.91Samuel Bolster   Camino, CA25:15 258704  101 TEAM KINETIC CYCLES
17558.26David Pauls   Angwin, CA25:23 111588  118 NORCAL
18564.61Jeff Dillon   Folsom, CA25:41 9524  105 BICYCLE PLANET
19570.96Chad DeMasi   Davis, CA26:09 158049  103 ROCKNASIUM
20577.30Ryan MacDonald   Martinez, CA27:43 160274  110 WELL'S FARGO RACING TEAM
21583.65Murat Ozgur   Los Altos, CA35:04 41335  117 SPORTGENIC/SQUADRA OVEST
22590.00Boris Rozenberg   Daly City, CA33:00 190311  123 

Men - Cat 4

 Place Points NameCity, StateTime USAC #BibTeam
1540.00Michael Claudio   West Sacramento, CA23:23 248052  206 DAVIS BIKE CLUB
2542.00Jeromy Cottell   Redwood City, CA23:24 273912  207 PENINSULA VELO / POMODORO
3544.00Joe Galloway   Exeter, CA23:35 242644  213 YOKOHL RANCH/SBW
4546.00Matt Abbott   Santa Rosa, CA23:42 260224  200 2WHEELRACING
5548.00Kevin Tufts   Cameron Park, CA24:11 243434  238 BICYCLE PLANET
6550.00Allen Brumm   Foster City, CA24:19 195431  203 WEBCOR/ALTO VELO
7552.00AJ Snovel   Sacramento, CA24:32 272559  234 DAVIS BIKE CLUB
8554.00Ryan Ettl   Folsom, CA24:39 252994  210 BICYCLE PLANET
9556.00Matt Tufts   Placerville, CA25:14 240212  239 BICYCLE PLANET
10558.00Anthony Ferretti   Oroville, CA25:23 283185  212 CHICO CORSA
11560.00William Youngman   Rocklin, CA25:23 203737  245 SQUADRA ABRUZZO
12562.00Peter Unruh   Calistoga, CA25:33 110667  240 
13564.00Joshua Bullock   Sacramento, CA25:36 153414  204 CHICO CORSA
14566.00James Whitney   Lincoln, CA26:05 51073  242 FUSIONSPORT
15568.00Mark Powers   San Mateo, CA26:12 236460  230 PENINSULA VELO/POMODORO
16570.00Timothy Zsoka   Folsom, CA26:18 239889  246 TEAM BICYCLES PLUS/SIERRA NEVADA
17572.00Alexander Yermolovich   Santa Clara, CA26:59 220894  243 UC IRVINE CYCLING
18574.00Kalman Zeiger   San Francisco, CA27:01 237651  254 GODSPEED COURIER
19576.00Kayden Kelly   Auburn, CA27:03 101369  217 
20578.00Aaron Lombardi   Elk Grove, CA27:32 258261  221 RIO STRADA RACING
21580.00Zach Hamm   Folsom, CA27:35 221161  215 TEAM BP
22582.00Bret Roberts   San Francisco, CA28:08 271061  231 SUGARCRM
23584.00Kevin Park   Sebastopol, CA30:09 292843  228 ORGANICATHLETE
24586.00Wick Smith III   Norfolk, VA30:26 272484  233 
25588.00Paul Morris   Carson City, NV39:17 294725  222 
26590.00Nicholas Tudoni   Burlingame, CA46:06 244476  237 PENINSULA VELO/POMODORO
DNSTim Fehon   San Francisco, CA 263093  211 TEAM NORCAL BIKESPORT
DNSJohn Novikoff   Rocklin, CA 239990  224 BICYCLE PLANET
DNSGerman Villa   San Lorenzo, CA 224232  241 BERKELEY BICYCLE CLUB (BBC)

Men - Cat 4/5 - Master A - 35-99

 Place Points NameCity, StateTime USAC #BibTeam
1491.10Roger Martin   Danville, CA22:01 276924  29 TALEO RACING
2493.25Greg Cook   El Dorado Hills, CA22:59 287558  TEAM BICYCLES PLUS/SIERRA NEVADA
3495.40Christopher Bowlus   Davis, CA23:01 244782  DAVIS BIKE CLUB
4497.55John Walters   Concord, CA23:09 287852  53 TALEO RACING
5499.70Roger Hogan   Fresno, CA23:12 285192  23 RUBBER SOUL/CSC RACING TEAM
6501.85Andreas Schulten   Cameron Park, CA23:23 248096  47 BICYCLE PLANET
7504.00Justin Rossi   Reno, NV23:39 298550  42 
8506.15Steve Thomsen   Reno, NV23:47 245436  50 GREAT BASIN IMAGING
9508.30Darin Salk   Davis, CA23:50 272631  44 DAVIS BIKE CLUB
10510.45Dave Dunkley   Clayton, CA23:57 195560  13 WELLS FARGO RACING TEAM
11512.60Scott Hellam   Fresno, CA24:09 287510  21 RUBBER SOUL/CSC
12514.75Ernie Perreira (1 - Cat4)   Sebastopol, CA24:09 27775  37 COLAVITA/SUTTERHOME - NORCAL
13516.90Michael Kopp   San Francisco, CA24:19 286893  25 TALEO RACING
14519.05Hanns Detlefsen   Concord, CA24:27 208769  12 BERKELEY BICYCLE CLUB
15521.20Mark Hockridge   Granite Bay, CA24:35 269690  22 DAVIS BIKE CLUB
16523.35Michael Boehme   Windsor, CA24:38 252576  COLAVITA/SUTTERHOME-NORCAL
17525.50Douglas Rowland   Davis, CA24:55 295966  43 DAVIS BIKE CLUB
18527.65Chris Parod   Mather, CA24:57 270992  36 TEAM BICYCLES PLUS/SIERRA NEVADA
19529.80Timothy Roberts   Dixon, CA24:57 30120  40 DAVIS BIKE CLUB
20531.95Robert Equi   Elk Grove, CA25:03 275297  17 SACRAMENTO GOLDEN WHEELMEN
21JOE MCCRUMMEN   25:13  30 
22536.25Steve Schnelker (2 - Cat4)   Reno, NV25:24 195301  46 RENO WHEELMEN
23538.40Rod Fernandez   Dixon, CA25:28 265576  19 DAVIS BIKE CLUB
24540.55Brian Pantiga   Folsom, CA25:31 61633  35 BICYCLE PLANET
25542.70Robbie Abundis   Aptos, CA25:32 89807  THE BICYCLE TRIP
26544.85Jeff Davis   Napa , CA26:02 258258  11 COLAVITA/SUTTERHOME-NORCAL
27547.00Jason Eiserich   Davis, CA26:06 256545  15 DAVIS BIKE CLUB
28549.15Mark Fiori   Folsom, CA26:18 112253  20 DAVIS BIKE CLUB
29551.30Nelson Quong   Sacramento, CA26:18 89585  39 
30553.45Robin Rolles   Sacramento , CA26:27 219331  41 DAVIS BIKE CLUB
31555.60Mike Carr   Rocklin, CA26:29 290981  RIO STRADA RACING
32557.75Christopher Sargent   Cameron Park, CA26:30 299246  45 
33559.90Frank Lunceford Sr   El Dorado Hills, CA26:31 273343  26 BICYCLE PLANET
34JOEL CORY   26:37  10 
35564.20Scott Morrison   Fairfield, CA26:41 234970  31 PRECISION BICYCLES/TEAM PRECISION
36566.35Dan Switlick   Granite Bay, CA26:45 271280  49 TEAM BICYCLES PLUS/SIERRA NEVADA
37568.50Jason Wagner   Sacramento, CA26:45 297789  52 SQUADRA ABRUZZO
38570.65Rafael Neiman   Loomis, CA26:55 270869  32 TEAM BICYCLES PLUS/SIERRA NEVADA
39AARON HUTCHINSON   27:31  24 
40574.95Matthew Berrien   Folsom, CA27:48 287318  RIO STRADA RACING
41RICH PITRA   28:40  38 
42579.25Michael O'Dell   Folsom, CA29:50 231563  33 
43ED MAHONEY   29:58  27 
44583.55frederick stewart (1 - Cat5)   Folsom, CA30:12 300577  48 
45DIEGO DURRELL   31:11  14 
46587.85Stuart Bratton   Folsom, CA31:29 286850  BICYCLE PLANET
47590.00Dennis Evans   San Jose, CA32:07 300011  18 
DNSKENNY BAILEY     
DNSChris Carroll   Yuba City, CA 270860  STERLING SPORTS GROUP
DNSJohn Ellis   Santa Rosa, CA 262353  16 NORCAL COLAVITA/SUTTER HOME
DNSDave Maminski   Campbell, CA 270067  28 SUGAR CRM
DNSRafael Ortiz    292562  34 
DNSJeffrey Tse   San Anselmo, CA 125893  51 SUGARCRM

Men - Cat 4/5 - Master B - 35-99

 Place Points NameCity, StateTime USAC #BibTeam
1539.70Robert Napieralski   Springville, CA23:54 271499  863 YOKOHL RANCH/SIERRA BICYCLE WERKS
2RICHARD PAUL   24:36  866 
3556.47Pete Zucker   Danville, CA24:54 287074  882 WELLS FARGO RACING TEAM
4564.85Samuel Campbell   San Francisco, CA25:10 242549  855 THIRD PILLAR
5573.23Steven Woo   Los Altos, CA25:17 38840  870 THIRD PILLAR
6NICK CANJURA   26:30  881 
7590.00David Barnes   Sacramento, CA26:48 287249  880 TEAM KINETIC CYCLES

Men - Cat 5

 Place Points NameCity, StateTime USAC #BibTeam
1535.93Kirk Evans   Sacramento, CA23:10 259534  361 DAVIS BIKE CLUB
2537.57Jeffrey Weaver   Sacramento, CA24:16 290926  396 
3539.21Michael White   Folsom, CA24:28 299962  398 REVOLUTIONS
4540.85Dean Klotz   Cameron Park, CA25:09 139360  405 GRIZZLY PEAK CYCLISTS
5542.48William Schultz   Walnutcrek, CA25:12 280827  413 UNATTACHED
6544.12Bob McCamish   Roseville, CA25:14 285998  380 REVOLUTIONS CYCLING
7545.76Fred Haines   Sacramento, CA25:16 249078  368 BEER / EAST SAC BIKE
8547.40Eric Nelson   San Clemente, CA25:16 232855  384 
9549.04Jordan Degen   San Francisco, CA25:22 9056  403 
10ANDREW BYER   25:29  401 
11ZACH BEHRENDT   25:31  351 MELLOW MOTORS
12553.95Travis Selk   Concord, CA25:53 242087  391 TALEO RACING
13555.59Michael McGuire   Benicia, CA26:06 277047  409 TEAM REVOLUTIONS
14557.23Ruben Vera   Roseville, CA26:11 281853  415 RIO STRADA RACING
15558.87Trevor Cadogan   Roseville, CA26:22 284507  354 
16GAVIN SCOTT   26:24  414 TEAM REVOLUTIONS
17562.15John Collins   Folsom, CA26:24 231774  355 BICYCLE PLANET
18563.78Ryan Miesbauer   West Sacramento, CA26:36 288945  382 SACRAMENTO GOLDEN WHEELMEN
19565.42Tom Cutter   Carmichael, CA26:44 285993  356 TEAM REVOLUTIONS
20567.06Donald Eipper   El Dorado Hills, CA26:50 248941  359 DAVIS BIKE CLUB
21568.70Joaquin Feliciano   Davis, CA27:29 271419  363 SAN JOSE BICYCLE CLUB
22570.34Douglas Schaller   Morgan Hill, CA27:32 266583  390 BICYCLE PLANET
23571.98Bob Ehardt   Orangevale, CA27:44 286992  358 TUESDAY VELO
24573.62Steve Loebach   Orangevale, CA27:45 254066  377 BICYCLE PLANET
25575.25Anthony ODell   Orangevale, CA28:17 287267  385 
26CHRIS GRAY   28:19  367 
27ERIC LOEWE   28:22  408 
28DON LEE   29:05  407 
29581.81Ryan Alvey   Sacramento, CA29:32 274522  400 
30TOM CAMPEAU   30:16  402 VICTORY VELO
31585.08David Woodhouse   Lincoln, CA30:23 272962  399 
32586.72Daniel Lebson   Folsom, CA32:08 295237  375 RIO STRADA RACING
33588.36Robert Smith   Gold River , CA34:25 299828  392 DAVIS BIKE CLUB
34590.00John Larsen   Roseville, CA37:31 68745  406 
DNSChristopher Adams   Sanfrancisco, CA 298784  350 ATLANTIS
DNSEvan LeVang   Chico, CA 263740  376 TEAM KINETIC CYCLES
DNSAnthony Pelosi   Folsom, CA 223582  387 TEAM REVOLUTION
DNSAARON HUTCHINSON     404 UNATTACHED
DNSMichael Miller   Napa, CA 227948  410 
DNSTODD OSTERBERG     411 
DNSJOSH RAINS     412 
DNFAlexander Kizis   Reno, NVCHICO 273691  374 THE BICYCLE WHEEL

Men - Masters - Master - 45-99

 Place Points NameCity, StateTime USAC #BibTeam
1376.63Kevin Metcalfe   Pleasant Hill, CA21:59 47519  747 TEAM SPECIALIZED RACING MASTERS
2383.30John Novitsky   Woodside, CA22:19 102274  748 VOS-CYCLES GLADIATOR
3389.97Thomas Coulter   Rocklin, CA22:35 74102  704 MORGAN STANLEY/TEAM SPINE/SPECIALIZED
4396.64John Hancock   Sacramento, CA23:01 195844  743 
5403.30Benjamin Swann (1 - Cat2)   Sacramento, CA23:06 34735  732 DELTA CASES CYCLING
6409.97Kevin McMurtry   Nevada City, CA23:25 287169  746 SERT/SHO-AIR
7416.64Michael Pugh   Davis, CA23:32 28820  722 DAVIS BIKE CLUB
8423.31Jess Raphael   Napa, CA23:38 221460  723 SAFEWAY/BICYCLES PLUS RACING
9429.98Cale Reeder   Cameron Park, CA23:43 272237  724 INTERNATIONAL CHRISTIAN CYCLING CLUB
10436.64Steve Showler   Carmichael, CA23:46 32554  729 ARMSTRONG & ASSOCIATES / FCI COMMERCIAL
11443.31Donald Langley   Morgan Hill, CA23:52 20327  711 MORGAN STANLEY/TEAM SPINE/SPECIALIZED
12449.98Tony Reid   Sacramento, CA24:01 29458  725 SAFEWAY/BICYCLES PLUS RACING
13456.65Richard Juarez   Mill Valley, CA24:10 71186  708 VOS-CYCLES GLADIATOR
14463.31Robert Pasco   Belmont, CA24:26 136970  720 SAFEWAY/BICYCLES PLUS RACING
15469.98Andrew Nevitt   Saratoga, CA24:27 47463  717 SJBC/SUGARCRM
16476.65Jay Kinney   Placerville, CA24:32 125352  710 
17483.32Bernard Silveria   El Dorado Hills, CA24:35 94897  730 UNATTACHED
18489.98Daniel Smith   Menlo Park, CA24:45 33087  731 MORGAN STANLEY/TEAM SPINE/SPECIALIZED
19496.65Lance Newey   Fair Oaks, CA25:00 202161  718 TEAM BICYCLES PLUS/SIERRA NEVADA
20503.32Steven Olechny   Saratoga , CA25:04 142113  719 TALEO RACING
21509.99Jeff Needham   Vacaville, CA25:17 91021  716 ROCKNASIUM
22516.66Spencer Kenner   Davis, CA25:24 86651  709 ARMSTRONG & ASSOCIATES / FCI COMMERCIAL
23523.32Douglas Gonda   Truckee, CA25:49 13594  706 RENO WHEELMEN
24529.99Mark Switters   Folsom, CA26:35 59052  750 SACRAMENTO GOLDEN WHEELMEN
25GREG TEASELEY   27:03  752 
26DUANE STRAUSER   27:12  754 
27549.99Gilbert Tarin   Knightsen, CA27:52 252241  751 
28BRIAN IVIE   27:53  744 
29563.33Philip Blay   Folsom, CA27:57 274756  702 
30570.00Rich Rozzi   Hollywood Ca28:27 230031  726 COLAVITA/SUTTERHOME-NORCAL
31RANDY COLE   29:55  742 
32GARY ZAHNISER   32:36  753 
33590.00Jeff Poulsen   Arnold, CA33:27 28533  721 SAFEWAY/BICYCLES PLUS RACING
DNSRobin McKinney   Lincoln, CA 276168  713 
DNSTimothy Montagne   Sunnyvale, CA 24781  714 SUGARCRM
DNSHunter Ziesing   Bel Tiburon, CA 39478  736 ZTEAM
DNSThomas Johnson   Carmichael, CA 278820  745 
DNSWilliam Sans   San Mateo, CA 48284  749 SYCIP

Men - Masters - Master - 55-99

 Place Points NameCity, StateTime USAC #BibTeam
1491.33Mac Carey   Pleasant Hill, CA23:09 249301  602 TALEO RACING
2498.38David Kelley   Atwater, CA24:30 65663  614 ALTO VELO
3505.43Manuel Borges   Vacavaille, CA24:31 254360  601 VOS-CYCLES GLADIATOR
4512.47John Zunino   Arnold, CA24:34 196757  612 PACIFIC STATE BANK CYCLING TEAM
5519.52Michael Phelps   Angels Camp, CA24:54 272743  617 VOS-CYCLES GLADIATOR
6526.57Dan Lekovish   San Leandro, CA25:04 254610  615 TALEO RACING
7533.62Bob Ebe   Lafayette, CA26:24 229180  613 TALEO RACING
8JAMES MADDOCK   26:25  616 
9547.71Joseph Pritchard   Benicia, CA26:40 90582  618 MAKO/MELLOW MOTORS
10554.76Greg Bollella   Redwood City, CA26:54 235126  600 WEBCOR / ALTO VELO
11561.81Lawrence Szabo   Oakland, CA29:10 145186  611 KAISER PERMANENTE/ TEAM OAKLAND CYCLING
12568.86Steve Grube   Sacramento, CA29:14 51158  607 
13575.90Frederick Proudman   Foley, AL29:47 46135  610 TALEO RACING
14582.95Dana Farmer   Gold River, CA30:03 150815  604 VOS-CYCLES GLADIATOR
15590.00Lothar Grahlmann   Pilot Hill, CA30:36 182045  606 ALTO VELO

Men - Junior - 15-18

 Place Points NameCity, StateTime USAC #BibTeam
1540.00Mackenzie Kelly   Santa Cruz, CA28:54 286297  552 
2ZACHARIAH MCCLENDON   32:21  561 
3573.33Tucker Huffman   Elk Grove, CA38:04 300411  551 
4GARRETT HANKINS   39:22  550 
DNSDavid Schultz   Walnutcreek, CA 281168  562 

Women - Cat 1/2/3

 Place Points NameCity, StateTime USAC #BibTeam
1445.87Jerika Hutchinson   Mount Shasta, CA24:10 219674  757 TEAM TIBCO
2457.88Jane Despas   Menlo Park, CA24:12 105201  754 KLEIN REAL ESTATE
3469.90Lauraleen Fenech   San Francisco, CA24:40 224272  755 BICI SPORT
4481.91Heather Pryor   Sacramento, CA24:54 289752  764 TOUCHSTONE CLIMBING
5EMILY KACHOREK   25:05  759 WELLS FARGO RACING TEAM
6505.93Marley Smith   Roseville, CA25:09 276961  766 WHOLE FOODS
7517.94Carol Irving   Woodland, CA25:36 17419  758 TOUCHSTONE CLIMBING
8529.95Andi Smith   Menlo Park, CA26:02 33024  769 WEBCOR/ALTO VELO
9541.96Amanda Seigle   Citrus Heights, CA26:05 203755  765 METROMINT CYCLING
10553.97Heather Nielson   Seattle, WA26:37 237346  762 COLAVITA SUTTER HOME NORCAL
11565.98Trudy Bjornsen   Dixon, CA26:51 180561  751 DAVIS BIKE CLUB
12577.99Ruth Winder   Lafayette, CA27:25 273081  768 PROMAN HIT SQUAD
13590.00April Hamlin   El Dorado Hills, CA27:42 266244  756 

Women - Cat 4

 Place Points NameCity, StateTime USAC #BibTeam
1LORI OSEN   25:49  659 
2544.55Juliette Olson   Cloverdale, CA26:18 297368  658 TEAM NORCAL BIKE SPORT
3LISA HOLM   27:53  653 
4553.64Norma Hilton   Pacifica, CA28:31 196223  652 PROTECH RACING
5558.18Leslie Halkett   Cameron Park, CA28:39 286638  651 DAVIS BIKE CLUB
6SARAH LUQUE   29:34  656 
7567.27Ellen Sherrill   South Lake Tahoe, CA30:29 299535  661 ALTA ALPINA CYCLING CLUB
8CAROL PARISE   30:36  660 
9576.36Sherri Lehman   Gold River, CA30:43 274098  655 TEAM INTEGRATE/FFBC P/B CHIPOTLE
10RENEE MCCANDLESS   30:44  657 
11585.45Jill Bowlus   Davis, CA31:39 296327  650 
12LINDA KELLY   37:06  654 
DNFCatherine Swenson   Sacramento, CA 291283  662 TEAM REVOLUTIONS

Report missing or incorrect license numbers

Volkswagen
ShimanoUSACDFSpyBonk BreakerSierra Nevada
UCI USA Cycling is the official governing body for all disciplines of competitive cycling in the United States. The 501c3, membership-based organization aims both to achieve sustained success in international cycling competition and to grow competitive cycling in America while delivering an exceptional customer experience.
View Children's Online Privacy Protection Policy
US Olympic Committee